[[{"header":{"parameterUnit":"m.s-1","parameterCategory":1,"la1":30.2992,"la2":30.254,"lo1":-89.0895,"lo2":-89.0443,"dy":0.0025,"dx":0.0025,"nx":19,"ny":19,"refTime":"2026-05-24T09:00:00:Z","depth":0,"parameterNumber":2,"parameterNumberName":"U-component_of_WINDS"},"data":[0,0,0,0.3889,0.3887,0.3769,0.3768,0.3637,0.3636,0,0,0,0,0,0,0,0,0,0,0,0.3938,0.3938,0.3889,0.3887,0.3769,0.3768,0.3637,0.3636,0,0,0,0,0,0,0,0,0,0,0,0.3939,0.3938,0.3938,0.3886,0.3769,0.3768,0.3637,0.3719,0,0,0,0,0,0,0,0,0,0,0.3829,0.389,0.3938,0.3938,0.3886,0.3769,0.3768,0.3722,0.3714,0.37,0,0.3694,0,0.3663,0.3629,0.3628,0,0,0,0.3875,0.3898,0.3853,0.3938,0.3885,0.377,0.3819,0.3717,0.3707,0.3688,0.3692,0.3686,0.3661,0.3628,0.3628,0.3596,0.3596,0,0,0.3881,0.3924,0.386,0.3848,0.3871,0.3823,0.3815,0.3711,0.3716,0.3691,0.3683,0.3659,0.3627,0.3627,0.3595,0.3596,0,0,0,0.3908,0.3929,0.3887,0.3854,0.3831,0.3819,0.3811,0.3721,0.3703,0.3681,0.3657,0.3627,0.3625,0.3595,0.3595,0.3661,0,0,0,0.3911,0.3945,0.389,0.3916,0.3834,0.3775,0.3824,0.3711,0.3698,0.3658,0.3627,0.3624,0.3594,0.3595,0.3658,0.3684,0,0,0,0.3941,0.3948,0.3937,0.3918,0.387,0.3776,0.3752,0.3707,0.3684,0.3628,0.3624,0.3594,0.3595,0.3655,0.368,0.369,0,0,0,0.3984,0.3993,0.3939,0.3939,0.3871,0.3818,0.3752,0.3709,0.367,0.3626,0.3594,0.3595,0.3654,0.3677,0.3688,0.3708,0.372,0,0,0.402,0.3999,0.3996,0.3943,0.3913,0.3832,0.3809,0.3729,0.3682,0.3626,0.3625,0.3659,0.3679,0.3689,0.3771,0.3782,0,0,0,0.4022,0.4021,0.4003,0.3969,0.3911,0.3863,0.3783,0.3754,0.3705,0.3663,0.3663,0.3674,0.3678,0.3685,0.3694,0.3695,0.36,0.36,0.36,0.4134,0.4077,0.4068,0.3997,0.3965,0.3884,0.3852,0.3797,0.3745,0.3747,0.373,0.3788,0.3798,0.3804,0.3806,0.3735,0.3735,0.3735,0.3735,0.4182,0.4172,0.4106,0.4075,0.4013,0.3984,0.3906,0.3871,0.3834,0.3795,0.3795,0.3759,0.3818,0.3816,0.374,0.3739,0.3738,0.3738,0.3738,0.425,0.4235,0.4202,0.4148,0.4113,0.4038,0.4008,0.3951,0.3897,0.3897,0.3875,0.3873,0.3866,0.3891,0.3891,0.3891,0.3891,0.3891,0.3891,0.4335,0.4295,0.4278,0.4219,0.4191,0.4146,0.4065,0.4034,0.3985,0.3946,0.3945,0.3895,0.3834,0.3821,0.3894,0.3894,0.3893,0.3893,0.3893,0.4407,0.4382,0.4356,0.4329,0.4255,0.4224,0.4152,0.4095,0.4061,0.4048,0.3996,0.3961,0.3934,0.3927,0.3916,0.4009,0.4009,0.4009,0.4009,0.4466,0.4448,0.441,0.4369,0.4322,0.4256,0.4226,0.4163,0.4093,0.4068,0.4046,0.4025,0.4021,0.3997,0.3988,0.3977,0.4083,0.4083,0.4083,0.4508,0.4483,0.447,0.4405,0.4344,0.4291,0.4262,0.4216,0.413,0.4085,0.4047,0.4044,0.4011,0.4003,0.3959,0.3946,0.3924,0,0]},{"header":{"parameterUnit":"m.s-1","parameterCategory":1,"la1":30.2992,"la2":30.254,"lo1":-89.0895,"lo2":-89.0443,"dy":0.0025,"dx":0.0025,"nx":19,"ny":19,"refTime":"2026-05-24T09:00:00:Z","depth":0,"parameterNumber":3,"parameterNumberName":"V-component_of_WINDS"},"data":[0,0,0,-0.0036,-0.0029,0.0316,0.0317,0.0736,0.074,0,0,0,0,0,0,0,0,0,0,0,-0.0157,-0.0154,-0.0036,-0.0028,0.0316,0.0317,0.0735,0.074,0,0,0,0,0,0,0,0,0,0,0,-0.0158,-0.0155,-0.0152,-0.0027,0.0315,0.0317,0.0735,0.0484,0,0,0,0,0,0,0,0,0,0,0.0154,0.0022,-0.0156,-0.0152,-0.0025,0.0315,0.0318,0.0472,0.05,0.0569,0,0.062,0,0.0686,0.0766,0.0767,0,0,0,-0.0012,-0.0001,0.0109,-0.0152,-0.0022,0.0314,0.0165,0.0488,0.0519,0.0605,0.0627,0.0643,0.0693,0.0768,0.077,0.1104,0.1105,0,0,-0.0031,-0.0103,0.0087,0.0127,0.0066,0.0154,0.0175,0.0507,0.0528,0.0628,0.0653,0.07,0.0771,0.0774,0.1103,0.1104,0,0,0,-0.0097,-0.0117,-0.0015,0.0109,0.0173,0.0163,0.0188,0.0514,0.0552,0.0658,0.0705,0.0773,0.0778,0.1102,0.1104,0.1073,0,0,0,-0.0107,-0.0155,-0.0025,-0.0065,0.0166,0.0346,0.0187,0.0529,0.0569,0.0702,0.0773,0.0782,0.1102,0.1103,0.1072,0.1072,0,0,0,-0.0172,-0.0162,-0.012,-0.007,0.0075,0.0342,0.0401,0.054,0.0597,0.0767,0.0783,0.1101,0.1103,0.1071,0.1071,0.114,0,0,0,-0.0261,-0.015,-0.0122,0.0021,0.0071,0.0318,0.04,0.0589,0.0731,0.0775,0.1102,0.1104,0.1071,0.107,0.1138,0.1186,0.1198,0,0,-0.0161,-0.0141,-0.0051,-0.0015,0.0207,0.0271,0.0493,0.0694,0.0779,0.0992,0.1002,0.1072,0.1071,0.114,0.1288,0.1296,0,0,0,-0.0043,0.0021,0.0095,0.0224,0.0377,0.051,0.0683,0.0759,0.0942,0.0871,0.1117,0.1119,0.1162,0.1189,0.1197,0.124,0.1112,0.1111,0.1111,-0.0001,0.0096,0.0252,0.0392,0.0516,0.0693,0.0806,0.0938,0.1004,0.106,0.1125,0.1202,0.123,0.1236,0.128,0.1156,0.1156,0.1156,0.1156,0.0157,0.0264,0.0344,0.0524,0.0629,0.0784,0.096,0.1001,0.1165,0.1161,0.1205,0.1195,0.1243,0.1287,0.1155,0.1155,0.1155,0.1155,0.1155,0.0197,0.0265,0.035,0.0547,0.0689,0.0829,0.098,0.1072,0.1159,0.1202,0.1282,0.1283,0.1298,0.1233,0.1233,0.1233,0.1234,0.1234,0.1234,0.0206,0.0303,0.0417,0.0586,0.0681,0.0819,0.0998,0.1097,0.123,0.1285,0.1286,0.1348,0.1227,0.1196,0.1239,0.1238,0.1237,0.1237,0.1237,0.0335,0.032,0.0495,0.0589,0.0798,0.0934,0.1047,0.124,0.1335,0.1407,0.146,0.1354,0.1383,0.1378,0.1354,0.1435,0.1435,0.1435,0.1435,0.0371,0.0393,0.0593,0.0739,0.0892,0.1011,0.1212,0.1353,0.1498,0.1564,0.1565,0.1539,0.1529,0.1566,0.1556,0.1535,0.166,0.1661,0.1661,0.0458,0.0498,0.0649,0.0783,0.0953,0.1098,0.1291,0.1461,0.1622,0.1672,0.1619,0.1609,0.1569,0.155,0.1601,0.1584,0.1547,0,0]}]]